Regional Weather Roundup
Issued by NWS Sterling, VA

Home | Current Version | Previous Version | Graphics & Text | Print | Product List | Glossary On
Versions: 1 2 3 4 5 6 7 8 9 10 11 12 13 14 15 16 17 18 19 20 21 22 23 24 25 26 27 28 29 30 31 32 33 34 35 36 37 38 39 40 41 42 43 44 45 46 47 48 49 50
000
ASUS41 KLWX 011810
RWRLWX

REGIONAL WEATHER ROUNDUP
NATIONAL WEATHER SERVICE BALTIMORE MD/WASHINGTON DC
200 PM EDT TUE SEP 01 2015

Note: "FAIR" indicates few or no clouds below 12,000 feet
with no significant weather and/or obstructions to visibility.
 TC=TEMPERATURE CELSIUS

 * =Non NWS site. Station does not report precipitation (e.g. rain,
    snow, etc.), thunder, or fog.

DCZ001-MDZ009-015-VAZ040>042-051-053>054-011900-
WASHINGTON METRO

CITY           SKY/WX    TMP DP  RH WIND       PRES   REMARKS
WASHINGTON NAT PTSUNNY   93  66  40 E3        30.05F HX  96
DULLES         MOSUNNY   89  66  46 NW9       30.07S HX  91
ANDREWS AFB    MOSUNNY   91  67  45 SE6       30.04F HX  93
FT BELVOIR     MOSUNNY   91  67  46 CALM      30.04F HX  94
QUANTICO       MOSUNNY   86  71  60 SW6       30.06F HX  91
COLLEGE PARK*  PTSUNNY   90  64  43 CALM      30.04F HX  91
LEESBURG*      MOSUNNY   90  70  51 NW6       30.08F HX  95
MANASSAS*      PTSUNNY   90  66  45 NW5       30.06F HX  92
GAITHERSBURG*  MOSUNNY   90  66  45 CALM      30.10F HX  92

$$

MDZ006>007-011-014-011900-
BALTIMORE METRO

CITY           SKY/WX    TMP DP  RH WIND       PRES   REMARKS
BWI AIRPORT    MOSUNNY   90  66  45 NW6       30.04F HX  92
MD SCIENCE CTR   N/A     89  65  44 MISG      30.04F HX  91
MARTIN STATE   MOSUNNY   88  73  62 S3        30.05F HX  96
ANNAPOLIS      SUNNY     83  73  72 SE9       30.04F
FORT MEADE*    MOSUNNY   86  70  58 N3        30.07F HX  90

$$

MDZ012-015-019>023-011900-
MARYLAND EASTERN SHORE

CITY           SKY/WX    TMP DP  RH WIND       PRES   REMARKS
OCEAN CITY     SUNNY     84  73  69 S9        30.04F HX  90
SALISBURY      MOSUNNY   88  68  51 CALM      30.03F HX  91
BAY BRIDGE AP*   N/A     86  68  54 W3        30.05F
CAMBRIDGE*     SUNNY     91  70  49 NW5       30.04F HX  97
EASTON*        MOSUNNY   91  70  49 N3        30.08F HX  97

$$

MDZ017>025-011900-
SOUTHERN MARYLAND

CITY           SKY/WX    TMP DP  RH WIND       PRES   REMARKS
PATUXENT RIVER MOSUNNY   85  71  63 SE5       30.05F HX  90
ST INIGOES     SUNNY     85  72  65 W6        30.05F HX  91
LEONARDTOWN*   NOT AVBL

$$

MDZ003>005-011900-
NORTH CENTRAL MARYLAND

CITY           SKY/WX    TMP DP  RH WIND       PRES   REMARKS
FREDERICK*     MOSUNNY   90  68  48 VRB3      30.09F HX  93
HAGERSTOWN APT MOSUNNY   90  64  42 VRB6      30.07F HX  91
WESTMINSTER*   MOSUNNY   88  64  45 NW5       30.08F

$$

MDZ501>502-011900-
WESTERN MARYLAND

CITY           SKY/WX    TMP DP  RH WIND       PRES   REMARKS
OAKLAND*       MOSUNNY   73  63  68 CALM      30.23S
CUMBERLAND*    SUNNY     90  64  43 SW6       30.12F HX  91

$$

VAZ025>031-011900-
SHENANDOAH VALLEY

CITY           SKY/WX    TMP DP  RH WIND       PRES   REMARKS
WINCHESTER*    MOSUNNY   91  63  38 N5        30.08F HX  92
FRONT ROYAL*   FAIR      90  64  43 W3        30.07F HX  91
LURAY*         FAIR      91  61  35 CALM      30.08F HX  91
NEW MARKET*    FAIR      89  65  45 E3        30.07F HX  91
STAUNTON*      MOSUNNY   87  66  49 NW8       30.13F
WAYNESBORO*    FAIR      86  65  48 E7        30.12F

$$

WVZ021-048>050-054>055-011900-
EASTERN WEST VIRGINIA PANHANDLE

CITY           SKY/WX    TMP DP  RH WIND       PRES   REMARKS
MARTINSBURG    SUNNY    N/A N/A N/A VRB7        N/A
PETERSBURG*    CLOUDY    87  65  48 CALM      30.11F

$$

VAZ036>039-050-011900-
CENTRAL FOOTHILLS

CITY           SKY/WX    TMP DP  RH WIND       PRES   REMARKS
CHARLOTTESVILL MOSUNNY   86  67  52 NE7       30.09F
CULPEPER*      SUNNY     89  68  51 NE5       30.08F HX  92
ORANGE*        PTSUNNY   90  63  40 NW5       30.08F HX  90
GORDONSVILLE*  FAIR      89  66  47 CALM      30.06F HX  91
WARRENTON*     PTSUNNY   90  70  52 N6        30.07F HX  95

$$

VAZ055>057-011900-
NORTH AND CENTRAL PIEDMONT

CITY           SKY/WX    TMP DP  RH WIND       PRES   REMARKS
FREDERICKSBRG* MOSUNNY   91  68  45 E5        30.04F HX  95
STAFFORD*      SUNNY     92  63  38 N5        30.10F HX  92

$$

NCZ024-NYZ072-PAZ021-071-VAZ022-071-011900-
OTHER REGIONAL OBSERVATIONS

CITY           SKY/WX    TMP DP  RH WIND       PRES   REMARKS
NEW YORK CITY  MOSUNNY   88  62  41 VRB3      30.07S
PHILADELPHIA   MOSUNNY   91  63  39 S7        30.03F HX  92
PITTSBURGH     MOSUNNY   87  64  46 W7        30.12F
ROANOKE        MOSUNNY   90  62  39 N6        30.13F HX  90
RICHMOND       MOSUNNY   90  68  48 VRB6      30.06F HX  94
RALEIGH        MOSUNNY   88  65  46 CALM      30.08F HX  90

$$

ANZ530>537-011900-
MARINE OBSERVATIONS

STATION/POSITION TIME  TEMP    WIND        PRES
                       AIR SEA DIR/SP/G
                 (UTC) (F)     (DEG/KT/KT) (MB)
THOMAS PT LIGHT  NOT AVBL
BALT KEY BRIDGE  1700   81     130/  6/  8 1017.7F
COVE POINT       1700   79      10/  2/  4 1018.8F
LEWISETTA        1700   80 80   60/  4/  5 1017.6F
SOLOMONS ISLAND  1700      80                N/A
PINEY POINT      1705          350/  2/  3   N/A

$$




USA.gov is the U.S. government's official web portal to all federal, state and local government web resources and services.